TimeCDT,TemperatureF,Dew PointF,Humidity,Sea Level PressureIn,VisibilityMPH,Wind Direction,Wind SpeedMPH,Gust SpeedMPH,PrecipitationIn,Events,Conditions,WindDirDegrees,DateUTC
12:53 AM,54.0,37.9,55,30.09,10.0,South,9.2,-,N/A,,Clear,190,2011-10-30 05:53:00
1:53 AM,52.0,37.9,59,30.09,10.0,South,6.9,-,N/A,,Clear,190,2011-10-30 06:53:00
2:53 AM,51.1,39.0,63,30.08,10.0,South,5.8,-,N/A,,Clear,190,2011-10-30 07:53:00
3:53 AM,48.9,39.0,69,30.08,10.0,Calm,Calm,-,N/A,,Clear,0,2011-10-30 08:53:00
4:53 AM,48.0,39.9,74,30.08,10.0,Calm,Calm,-,N/A,,Clear,0,2011-10-30 09:53:00
5:53 AM,46.9,39.9,77,30.09,10.0,Calm,Calm,-,N/A,,Clear,0,2011-10-30 10:53:00
6:53 AM,46.4,39.2,76,30.12,10.0,WNW,3.5,-,N/A,,Partly Cloudy,290,2011-10-30 11:53:00
7:53 AM,45.0,39.0,80,30.11,10.0,WNW,3.5,-,N/A,,Partly Cloudy,300,2011-10-30 12:53:00
8:53 AM,50.0,42.1,74,30.12,10.0,NNW,3.5,-,N/A,,Scattered Clouds,340,2011-10-30 13:53:00
9:53 AM,55.9,43.0,62,30.14,10.0,Calm,Calm,-,N/A,,Partly Cloudy,0,2011-10-30 14:53:00
10:53 AM,61.0,46.0,58,30.15,10.0,ESE,3.5,-,N/A,,Partly Cloudy,120,2011-10-30 15:53:00
11:53 AM,66.0,46.9,50,30.14,10.0,SSE,3.5,-,N/A,,Clear,150,2011-10-30 16:53:00
12:53 PM,69.1,45.0,42,30.12,10.0,South,5.8,-,N/A,,Clear,190,2011-10-30 17:53:00
1:53 PM,71.1,44.1,38,30.10,10.0,Calm,Calm,-,N/A,,Clear,0,2011-10-30 18:53:00
2:53 PM,72.0,46.0,40,30.07,10.0,SE,3.5,-,N/A,,Clear,140,2011-10-30 19:53:00
3:53 PM,73.9,44.1,34,30.06,10.0,Calm,Calm,-,N/A,,Clear,0,2011-10-30 20:53:00
4:53 PM,73.0,44.1,35,30.05,10.0,Calm,Calm,-,N/A,,Clear,0,2011-10-30 21:53:00
5:53 PM,73.4,44.6,36,30.08,10.0,SSE,4.6,-,N/A,,Clear,150,2011-10-30 22:53:00
6:53 PM,66.9,45.0,45,30.06,10.0,SE,5.8,-,N/A,,Clear,130,2011-10-30 23:53:00
7:53 PM,66.0,46.0,48,30.10,10.0,Calm,Calm,-,N/A,,Clear,0,2011-10-31 00:53:00
8:53 PM,64.0,46.9,54,30.12,10.0,Calm,Calm,-,N/A,,Clear,0,2011-10-31 01:53:00
9:53 PM,61.0,46.9,60,30.14,10.0,Calm,Calm,-,N/A,,Clear,0,2011-10-31 02:53:00
10:53 PM,59.0,46.9,64,30.15,10.0,Calm,Calm,-,N/A,,Clear,0,2011-10-31 03:53:00
11:53 PM,57.9,46.0,65,30.16,10.0,Calm,Calm,-,N/A,,Clear,0,2011-10-31 04:53:00